Location: Newark
(50.4348°N, 30.5552°E)
Time: 11:33:21
(UTC+00:00)

Tiros 1 despin weight - Pass Details

Date: 27 January 2020
Orbit: 594 x 642 km, 48.2° (Epoch: 22 February)

Event Time Altitude Azimuth Distance (km) Brightness Sun altitude
Rises 08:34:18 0° 218° (SW) 2,847 ? 17.8°
Reaches altitude 10° 08:36:50 10° 206° (SSW) 1,954 ? 18.0°
Maximum altitude 08:40:36 27° 149° (SSE) 1,191 ? 18.2°
Drops below altitude 10° 08:44:26 10° 92° (E) 1,987 ? 18.5°
Sets 08:47:01 0° 80° (E) 2,905 ? 18.6°
